UAL2157 KIAH-KSLC

Flight info

Callsign UAL2157
Flight time 3h 12m
Altitude 36000
Route BNDTO6 CRGER CNX/N0459F380 DVC HELPR PITTT2
Aircraft B737/M-SDE2E3FGHIRWXY/LB1

Departure

Time 2026-05-05 02:20
Airport George Bush Intercontinental Airport (KIAH)

Arrival

Time 2026-05-05 05:32
Airport Salt Lake City International Airport (KSLC)
Time Latitude Longitude Altitude Speed Heading
2026-05-05 01:25 29.98440 -95.33472 106 ft 0 kts 327°
2026-05-05 01:58 29.98426 -95.33461 106 ft 2 kts 327°
2026-05-05 01:58 29.98407 -95.33444 106 ft 4 kts 303°
2026-05-05 01:58 29.98400 -95.33418 103 ft 4 kts 251°
2026-05-05 01:58 29.98414 -95.33399 105 ft 4 kts 186°
2026-05-05 01:59 29.98437 -95.33399 104 ft 1 kts 180°
2026-05-05 01:59 29.98438 -95.33399 104 ft 0 kts 180°
2026-05-05 02:04 29.98440 -95.33472 106 ft 0 kts 327°
2026-05-05 02:08 29.98452 -95.34122 106 ft 0 kts 182°
2026-05-05 02:12 29.98364 -95.33399 106 ft 1 kts 180°
2026-05-05 02:13 29.98362 -95.33399 106 ft 2 kts 179°
2026-05-05 02:13 29.98331 -95.33399 106 ft 5 kts 179°
2026-05-05 02:13 29.98295 -95.33398 106 ft 5 kts 179°
2026-05-05 02:13 29.98247 -95.33405 106 ft 10 kts 207°
2026-05-05 02:14 29.98225 -95.33489 106 ft 13 kts 272°
2026-05-05 02:14 29.98228 -95.33622 106 ft 21 kts 272°
2026-05-05 02:14 29.98244 -95.33797 106 ft 22 kts 271°
2026-05-05 02:14 29.98247 -95.33970 106 ft 21 kts 276°
2026-05-05 02:15 29.98300 -95.34122 106 ft 19 kts 286°
2026-05-05 02:15 29.98304 -95.34270 106 ft 18 kts 270°
2026-05-05 02:15 29.98286 -95.34418 106 ft 19 kts 241°
2026-05-05 02:15 29.98258 -95.34561 106 ft 18 kts 271°
2026-05-05 02:16 29.98257 -95.34707 106 ft 19 kts 269°
2026-05-05 02:16 29.98257 -95.34865 106 ft 21 kts 269°
2026-05-05 02:16 29.98257 -95.35029 106 ft 19 kts 270°
2026-05-05 02:16 29.98290 -95.35144 106 ft 14 kts 327°
2026-05-05 02:17 29.98382 -95.35202 106 ft 16 kts 331°
2026-05-05 02:17 29.98506 -95.35278 106 ft 22 kts 332°
2026-05-05 02:17 29.98640 -95.35360 106 ft 21 kts 332°
2026-05-05 02:17 29.98770 -95.35440 105 ft 21 kts 332°
2026-05-05 02:18 29.98866 -95.35500 106 ft 9 kts 325°
2026-05-05 02:18 29.98879 -95.35564 106 ft 9 kts 252°
2026-05-05 02:18 29.98849 -95.35631 106 ft 10 kts 242°
2026-05-05 02:18 29.98815 -95.35704 107 ft 10 kts 240°
2026-05-05 02:19 29.98774 -95.35765 107 ft 8 kts 204°
2026-05-05 02:19 29.98743 -95.35759 108 ft 3 kts 152°
2026-05-05 02:19 29.98731 -95.35752 108 ft 2 kts 151°
2026-05-05 02:19 29.98698 -95.35730 107 ft 11 kts 152°
2026-05-05 02:20 29.98416 -95.35560 105 ft 83 kts 152°
2026-05-05 02:20 29.97706 -95.35123 107 ft 145 kts 150°
2026-05-05 02:20 29.96736 -95.34507 544 ft 162 kts 150°
2026-05-05 02:20 29.95794 -95.33868 1485 ft 156 kts 156°
2026-05-05 02:21 29.94690 -95.33665 1835 ft 179 kts 197°
2026-05-05 02:21 29.93684 -95.34625 2080 ft 212 kts 237°
2026-05-05 02:21 29.93482 -95.36395 2575 ft 236 kts 275°
2026-05-05 02:21 29.93853 -95.38284 3188 ft 251 kts 278°
2026-05-05 02:22 29.94220 -95.40286 3954 ft 257 kts 277°
2026-05-05 02:22 29.94551 -95.42318 4683 ft 260 kts 277°
2026-05-05 02:22 29.94850 -95.44343 4963 ft 258 kts 277°
2026-05-05 02:22 29.95143 -95.46384 4992 ft 257 kts 276°
2026-05-05 02:23 29.95432 -95.48424 4998 ft 260 kts 276°
2026-05-05 02:23 29.95722 -95.50469 5023 ft 265 kts 277°
2026-05-05 02:23 29.96042 -95.52581 5621 ft 267 kts 278°
2026-05-05 02:23 29.96362 -95.54678 6559 ft 267 kts 279°
2026-05-05 02:24 29.96686 -95.56803 7363 ft 270 kts 279°
2026-05-05 02:24 29.97007 -95.58916 8343 ft 269 kts 279°
2026-05-05 02:24 29.97332 -95.61061 9231 ft 273 kts 279°
2026-05-05 02:24 29.97657 -95.63218 10213 ft 273 kts 280°
2026-05-05 02:25 29.98055 -95.65427 10709 ft 293 kts 283°
2026-05-05 02:25 29.98575 -95.67813 10899 ft 320 kts 284°
2026-05-05 02:25 29.99146 -95.70330 11376 ft 335 kts 285°
2026-05-05 02:25 29.99740 -95.72948 12200 ft 337 kts 285°
2026-05-05 02:26 30.00329 -95.75568 13122 ft 338 kts 285°
2026-05-05 02:26 30.00917 -95.78206 13962 ft 341 kts 285°
2026-05-05 02:26 30.01505 -95.80865 14692 ft 343 kts 285°
2026-05-05 02:26 30.02092 -95.83537 15429 ft 345 kts 285°
2026-05-05 02:27 30.02683 -95.86232 15857 ft 349 kts 285°
2026-05-05 02:27 30.03280 -95.88956 16625 ft 350 kts 285°
2026-05-05 02:27 30.03866 -95.91642 17478 ft 350 kts 285°
2026-05-05 02:27 30.04462 -95.94372 18202 ft 352 kts 285°
2026-05-05 02:28 30.05061 -95.97122 18834 ft 354 kts 285°
2026-05-05 02:28 30.05662 -95.99879 19501 ft 355 kts 285°
2026-05-05 02:28 30.06265 -96.02650 20168 ft 356 kts 285°
2026-05-05 02:28 30.06868 -96.05425 20816 ft 357 kts 285°
2026-05-05 02:29 30.07416 -96.08231 21445 ft 359 kts 282°
2026-05-05 02:29 30.07859 -96.11081 22025 ft 362 kts 281°
2026-05-05 02:29 30.08277 -96.13953 22605 ft 364 kts 281°
2026-05-05 02:29 30.08703 -96.16839 23211 ft 366 kts 281°
2026-05-05 02:30 30.09137 -96.19697 23707 ft 367 kts 282°
2026-05-05 02:30 30.09585 -96.22612 24168 ft 369 kts 282°
2026-05-05 02:30 30.10038 -96.25542 24611 ft 372 kts 282°
2026-05-05 02:30 30.10491 -96.28480 25052 ft 374 kts 282°
2026-05-05 02:31 30.10948 -96.31453 25486 ft 376 kts 282°
2026-05-05 02:31 30.11405 -96.34426 25905 ft 379 kts 282°
2026-05-05 02:31 30.11862 -96.37409 26320 ft 381 kts 282°
2026-05-05 02:31 30.12320 -96.40399 26742 ft 383 kts 282°
2026-05-05 02:32 30.12784 -96.43440 27124 ft 385 kts 282°
2026-05-05 02:32 30.13242 -96.46442 27495 ft 388 kts 282°
2026-05-05 02:32 30.13705 -96.49482 27833 ft 390 kts 282°
2026-05-05 02:32 30.14173 -96.52566 28300 ft 390 kts 282°
2026-05-05 02:33 30.14640 -96.55643 28904 ft 387 kts 282°
2026-05-05 02:33 30.15100 -96.58684 29519 ft 383 kts 282°
2026-05-05 02:33 30.15557 -96.61713 30089 ft 382 kts 282°
2026-05-05 02:33 30.16012 -96.64726 30605 ft 379 kts 282°
2026-05-05 02:34 30.16463 -96.67714 31196 ft 376 kts 282°
2026-05-05 02:34 30.16908 -96.70672 31819 ft 372 kts 282°
2026-05-05 02:34 30.17348 -96.73603 32400 ft 369 kts 282°
2026-05-05 02:34 30.17778 -96.76469 32959 ft 366 kts 282°
2026-05-05 02:35 30.18211 -96.79358 33531 ft 363 kts 281°
2026-05-05 02:35 30.18639 -96.82219 34055 ft 360 kts 282°
2026-05-05 02:35 30.19064 -96.85061 34472 ft 358 kts 281°
2026-05-05 02:35 30.19488 -96.87898 34836 ft 358 kts 281°
2026-05-05 02:36 30.19910 -96.90730 35206 ft 357 kts 281°
2026-05-05 02:36 30.20330 -96.93555 35573 ft 356 kts 281°
2026-05-05 02:36 30.20747 -96.96366 35912 ft 356 kts 282°
2026-05-05 02:37 30.21587 -97.02029 35941 ft 360 kts 282°
2026-05-05 02:37 30.22419 -97.07668 35927 ft 352 kts 282°
2026-05-05 02:38 30.23250 -97.13249 35916 ft 352 kts 282°
2026-05-05 02:38 30.24085 -97.18837 35837 ft 353 kts 282°
2026-05-05 02:39 30.24918 -97.24439 35843 ft 354 kts 282°
2026-05-05 02:39 30.25744 -97.30009 35854 ft 354 kts 282°
2026-05-05 02:40 30.26575 -97.35637 35853 ft 355 kts 282°
2026-05-05 02:40 30.27403 -97.41264 35853 ft 355 kts 281°
2026-05-05 02:41 30.28230 -97.46897 35855 ft 355 kts 281°
2026-05-05 02:41 30.29049 -97.52494 35849 ft 355 kts 281°
2026-05-05 02:42 30.29871 -97.58131 35866 ft 355 kts 281°
2026-05-05 02:42 30.30690 -97.63763 35855 ft 355 kts 281°
2026-05-05 02:43 30.31506 -97.69392 35863 ft 354 kts 281°
2026-05-05 02:43 30.32397 -97.74956 35866 ft 354 kts 284°
2026-05-05 02:44 30.33579 -97.80485 35864 ft 354 kts 285°
2026-05-05 02:44 30.34784 -97.86007 35906 ft 354 kts 285°
2026-05-05 02:45 30.35966 -97.91533 35917 ft 354 kts 284°
2026-05-05 02:45 30.37135 -97.97070 35898 ft 354 kts 284°
2026-05-05 02:46 30.38290 -98.02568 35910 ft 354 kts 284°
2026-05-05 02:46 30.39451 -98.08113 35926 ft 354 kts 284°
2026-05-05 02:47 30.40611 -98.13664 35906 ft 355 kts 284°
2026-05-05 02:47 30.41575 -98.18284 35886 ft 355 kts 284°
2026-05-05 02:48 30.42921 -98.24755 35892 ft 356 kts 284°
2026-05-05 02:48 30.44079 -98.30330 35893 ft 356 kts 284°
2026-05-05 02:49 30.45295 -98.34873 35871 ft 357 kts 295°
2026-05-05 02:49 30.47989 -98.39737 35890 ft 359 kts 301°
2026-05-05 02:50 30.51291 -98.45282 35854 ft 360 kts 301°
2026-05-05 02:50 30.54124 -98.50071 35857 ft 360 kts 301°
2026-05-05 02:51 30.56470 -98.54065 35852 ft 360 kts 301°
2026-05-05 02:51 30.59284 -98.58877 35870 ft 360 kts 301°
2026-05-05 02:52 30.62095 -98.63695 35886 ft 360 kts 300°
2026-05-05 02:52 30.64900 -98.68512 35884 ft 360 kts 300°
2026-05-05 02:53 30.67687 -98.73304 35893 ft 360 kts 300°
2026-05-05 02:53 30.70488 -98.78126 35881 ft 360 kts 300°
2026-05-05 02:54 30.73284 -98.82946 35870 ft 359 kts 300°
2026-05-05 02:54 30.76072 -98.87757 35866 ft 358 kts 300°
2026-05-05 02:55 30.78854 -98.92562 35856 ft 358 kts 300°
2026-05-05 02:55 30.81611 -98.97332 35842 ft 357 kts 300°
2026-05-05 02:56 30.84381 -99.02131 35831 ft 357 kts 300°
2026-05-05 02:56 30.87151 -99.06933 35814 ft 357 kts 300°
2026-05-05 02:57 30.89915 -99.11733 35808 ft 357 kts 300°
2026-05-05 02:57 30.92683 -99.16545 35829 ft 358 kts 300°
2026-05-05 02:58 30.95432 -99.21330 35833 ft 358 kts 300°
2026-05-05 02:58 30.98200 -99.26153 35834 ft 358 kts 300°
2026-05-05 02:59 31.00964 -99.30976 35842 ft 358 kts 300°
2026-05-05 02:59 31.03725 -99.35799 35847 ft 358 kts 300°
2026-05-05 03:00 31.06467 -99.40594 35797 ft 357 kts 300°
2026-05-05 03:00 31.09220 -99.45416 35786 ft 357 kts 300°
2026-05-05 03:01 31.11975 -99.50245 35789 ft 357 kts 300°
2026-05-05 03:01 31.14729 -99.55080 35782 ft 358 kts 300°
2026-05-05 03:02 31.17483 -99.59922 35791 ft 358 kts 299°
2026-05-05 03:02 31.20218 -99.64735 35777 ft 358 kts 299°
2026-05-05 03:03 31.22970 -99.69583 35768 ft 358 kts 299°
2026-05-05 03:03 31.25717 -99.74429 35770 ft 358 kts 299°
2026-05-05 03:04 31.28461 -99.79276 35762 ft 357 kts 299°
2026-05-05 03:04 31.31184 -99.84091 35760 ft 357 kts 299°
2026-05-05 03:05 31.33925 -99.88946 35769 ft 357 kts 299°
2026-05-05 03:05 31.36665 -99.93804 35759 ft 358 kts 299°
2026-05-05 03:06 31.39405 -99.98670 35765 ft 358 kts 299°
2026-05-05 03:06 31.42147 -100.03544 35773 ft 359 kts 299°
2026-05-05 03:07 31.44869 -100.08388 35768 ft 358 kts 299°
2026-05-05 03:07 31.47605 -100.13262 35766 ft 358 kts 299°
2026-05-05 03:08 31.50334 -100.18130 35767 ft 357 kts 299°
2026-05-05 03:08 31.53055 -100.22991 35760 ft 357 kts 298°
2026-05-05 03:09 31.55775 -100.27857 35762 ft 357 kts 298°
2026-05-05 03:09 31.58474 -100.32692 35786 ft 357 kts 298°
2026-05-05 03:10 31.61195 -100.37571 35785 ft 357 kts 298°
2026-05-05 03:10 31.63918 -100.42461 35784 ft 358 kts 298°
2026-05-05 03:11 31.66645 -100.47364 35759 ft 359 kts 298°
2026-05-05 03:11 31.69357 -100.52246 35751 ft 360 kts 298°
2026-05-05 03:12 31.72089 -100.57169 35751 ft 360 kts 298°
2026-05-05 03:12 31.74822 -100.62100 35741 ft 360 kts 298°
2026-05-05 03:13 31.77553 -100.67035 35741 ft 360 kts 298°
2026-05-05 03:13 31.80265 -100.71942 35745 ft 360 kts 298°
2026-05-05 03:14 31.82990 -100.76878 35743 ft 360 kts 298°
2026-05-05 03:14 31.85712 -100.81817 35728 ft 359 kts 298°
2026-05-05 03:15 31.88428 -100.86749 35771 ft 359 kts 298°
2026-05-05 03:15 31.91135 -100.91671 35747 ft 358 kts 298°
2026-05-05 03:16 31.93812 -100.96545 35721 ft 356 kts 297°
2026-05-05 03:16 31.96492 -101.01433 35721 ft 355 kts 297°
2026-05-05 03:17 31.99166 -101.06315 35718 ft 354 kts 297°
2026-05-05 03:17 32.01831 -101.11187 35728 ft 354 kts 297°
2026-05-05 03:18 32.04499 -101.16070 35711 ft 354 kts 297°
2026-05-05 03:18 32.07147 -101.20923 35716 ft 354 kts 297°
2026-05-05 03:19 32.11146 -101.28265 35779 ft 355 kts 297°
2026-05-05 03:19 32.13815 -101.33174 35808 ft 356 kts 297°
2026-05-05 03:20 32.16470 -101.38060 35825 ft 356 kts 297°
2026-05-05 03:20 32.19142 -101.42984 35842 ft 356 kts 297°
2026-05-05 03:21 32.21804 -101.47898 35843 ft 355 kts 297°
2026-05-05 03:21 32.24460 -101.52806 35848 ft 354 kts 297°
2026-05-05 03:22 32.27107 -101.57704 35840 ft 353 kts 297°
2026-05-05 03:22 32.29730 -101.62565 35826 ft 353 kts 297°
2026-05-05 03:23 32.32366 -101.67456 35799 ft 353 kts 297°
2026-05-05 03:23 32.35001 -101.72351 35725 ft 353 kts 297°
2026-05-05 03:24 32.37637 -101.77256 35708 ft 353 kts 297°
2026-05-05 03:24 32.40272 -101.82164 35702 ft 353 kts 296°
2026-05-05 03:25 32.42888 -101.87041 35715 ft 353 kts 296°
2026-05-05 03:25 32.45515 -101.91946 35740 ft 353 kts 296°
2026-05-05 03:26 32.48137 -101.96850 35752 ft 352 kts 296°
2026-05-05 03:26 32.50757 -102.01756 35760 ft 352 kts 296°
2026-05-05 03:27 32.53356 -102.06629 35760 ft 352 kts 296°
2026-05-05 03:27 32.55975 -102.11547 35771 ft 353 kts 296°
2026-05-05 03:28 32.58594 -102.16471 35772 ft 354 kts 296°
2026-05-05 03:28 32.61218 -102.21409 35715 ft 354 kts 296°
2026-05-05 03:29 32.63828 -102.26327 35739 ft 355 kts 296°
2026-05-05 03:29 32.66452 -102.31278 35766 ft 355 kts 296°
2026-05-05 03:30 32.69074 -102.36233 35799 ft 354 kts 296°
2026-05-05 03:30 32.71695 -102.41191 35827 ft 354 kts 296°
2026-05-05 03:31 32.74291 -102.46109 35849 ft 354 kts 295°
2026-05-05 03:31 32.76902 -102.51063 35865 ft 354 kts 295°
2026-05-05 03:32 32.79510 -102.56018 35868 ft 354 kts 295°
2026-05-05 03:32 32.82115 -102.60974 35864 ft 353 kts 295°
2026-05-05 03:33 32.84718 -102.65932 35853 ft 353 kts 295°
2026-05-05 03:33 32.87300 -102.70859 35826 ft 353 kts 295°
2026-05-05 03:34 32.89899 -102.75821 35801 ft 353 kts 295°
2026-05-05 03:34 32.92492 -102.80782 35777 ft 353 kts 295°
2026-05-05 03:35 32.95085 -102.85748 35749 ft 353 kts 295°
2026-05-05 03:35 32.97659 -102.90682 35727 ft 353 kts 295°
2026-05-05 03:36 33.00246 -102.95651 35734 ft 353 kts 295°
2026-05-05 03:36 33.02830 -103.00619 35736 ft 352 kts 295°
2026-05-05 03:37 33.05407 -103.05579 35723 ft 351 kts 295°
2026-05-05 03:37 33.07952 -103.10484 35728 ft 350 kts 295°
2026-05-05 03:38 33.10504 -103.15413 35726 ft 349 kts 294°
2026-05-05 03:38 33.13051 -103.20337 35730 ft 349 kts 294°
2026-05-05 03:39 33.15600 -103.25272 35732 ft 349 kts 294°
2026-05-05 03:39 33.18149 -103.30213 35730 ft 350 kts 294°
2026-05-05 03:40 33.20684 -103.35135 35735 ft 350 kts 294°
2026-05-05 03:40 33.23237 -103.40096 35754 ft 351 kts 294°
2026-05-05 03:41 33.25793 -103.45071 35735 ft 351 kts 294°
2026-05-05 03:41 33.28342 -103.50036 35741 ft 350 kts 294°
2026-05-05 03:42 33.30867 -103.54962 35736 ft 350 kts 293°
2026-05-05 03:42 33.33404 -103.59921 35733 ft 349 kts 293°
2026-05-05 03:43 33.35933 -103.64869 35729 ft 348 kts 293°
2026-05-05 03:43 33.38454 -103.69810 35728 ft 348 kts 293°
2026-05-05 03:44 33.40973 -103.74753 35731 ft 348 kts 293°
2026-05-05 03:44 33.43473 -103.79667 35728 ft 348 kts 293°
2026-05-05 03:45 33.45992 -103.84623 35729 ft 348 kts 293°
2026-05-05 03:45 33.48509 -103.89586 35725 ft 349 kts 293°
2026-05-05 03:46 33.51027 -103.94552 35715 ft 349 kts 293°
2026-05-05 03:46 33.53523 -103.99481 35716 ft 348 kts 292°
2026-05-05 03:47 33.56034 -104.04447 35713 ft 348 kts 292°
2026-05-05 03:47 33.58541 -104.09412 35700 ft 348 kts 292°
2026-05-05 03:48 33.61045 -104.14379 35699 ft 348 kts 292°
2026-05-05 03:48 33.63529 -104.19315 35694 ft 348 kts 292°
2026-05-05 03:49 33.66030 -104.24289 35700 ft 348 kts 292°
2026-05-05 03:49 33.68535 -104.29281 35695 ft 350 kts 292°
2026-05-05 03:50 33.71048 -104.34295 35685 ft 351 kts 292°
2026-05-05 03:50 33.73566 -104.39322 35699 ft 351 kts 292°
2026-05-05 03:51 33.76065 -104.44319 35699 ft 351 kts 292°
2026-05-05 03:51 33.78578 -104.49351 35700 ft 351 kts 292°
2026-05-05 03:52 33.81084 -104.54378 35724 ft 351 kts 292°
2026-05-05 03:52 33.83590 -104.59412 35721 ft 351 kts 292°
2026-05-05 03:53 33.86091 -104.64444 35740 ft 351 kts 292°
2026-05-05 03:53 33.88578 -104.69453 35740 ft 351 kts 292°
2026-05-05 03:54 33.91079 -104.74497 35738 ft 350 kts 292°
2026-05-05 03:54 33.93572 -104.79533 35733 ft 350 kts 292°
2026-05-05 03:55 33.96065 -104.84575 35733 ft 350 kts 292°
2026-05-05 03:55 33.98535 -104.89578 35733 ft 350 kts 292°
2026-05-05 03:56 34.01021 -104.94621 35733 ft 350 kts 292°
2026-05-05 03:56 34.03508 -104.99675 35757 ft 351 kts 292°
2026-05-05 03:57 34.06006 -105.04759 35777 ft 353 kts 291°
2026-05-05 03:57 34.08516 -105.09873 35786 ft 355 kts 291°
2026-05-05 03:58 34.11017 -105.14973 35780 ft 356 kts 291°
2026-05-05 03:58 34.13535 -105.20117 35765 ft 356 kts 291°
2026-05-05 03:59 34.16046 -105.25253 35798 ft 355 kts 291°
2026-05-05 03:59 34.18550 -105.30378 35781 ft 353 kts 291°
2026-05-05 04:00 34.21022 -105.35452 35797 ft 353 kts 291°
2026-05-05 04:00 34.23508 -105.40562 35813 ft 353 kts 291°
2026-05-05 04:01 34.25997 -105.45686 35850 ft 354 kts 291°
2026-05-05 04:01 34.28487 -105.50819 35835 ft 354 kts 291°
2026-05-05 04:02 34.30978 -105.55951 35814 ft 354 kts 291°
2026-05-05 04:02 34.33434 -105.61032 35828 ft 351 kts 291°
2026-05-05 04:03 34.36046 -105.66048 35846 ft 360 kts 297°
2026-05-05 04:03 34.39584 -105.70438 35838 ft 372 kts 309°
2026-05-05 04:04 34.43758 -105.74214 35840 ft 376 kts 310°
2026-05-05 04:04 34.47996 -105.77965 35857 ft 378 kts 310°
2026-05-05 04:05 34.52206 -105.81710 35835 ft 378 kts 310°
2026-05-05 04:05 34.56425 -105.85487 35836 ft 377 kts 310°
2026-05-05 04:06 34.60630 -105.89265 35827 ft 375 kts 310°
2026-05-05 04:06 34.64813 -105.93032 35823 ft 374 kts 309°
2026-05-05 04:07 34.68984 -105.96793 35840 ft 373 kts 309°
2026-05-05 04:07 34.73118 -106.00529 35865 ft 373 kts 309°
2026-05-05 04:08 34.77285 -106.04300 35838 ft 373 kts 309°
2026-05-05 04:08 34.81443 -106.08068 35821 ft 373 kts 309°
2026-05-05 04:09 34.85601 -106.11839 35819 ft 373 kts 308°
2026-05-05 04:09 34.89753 -106.15610 35819 ft 373 kts 309°
2026-05-05 04:10 34.93887 -106.19369 35823 ft 373 kts 309°
2026-05-05 04:10 34.98051 -106.23160 35831 ft 374 kts 309°
2026-05-05 04:11 35.02212 -106.26953 35855 ft 374 kts 309°
2026-05-05 04:11 35.06374 -106.30752 35866 ft 374 kts 309°
2026-05-05 04:12 35.10506 -106.34537 35893 ft 373 kts 308°
2026-05-05 04:12 35.14679 -106.38348 35891 ft 375 kts 308°
2026-05-05 04:13 35.16760 -106.40256 35772 ft 374 kts 308°
2026-05-05 04:13 35.18837 -106.42159 35778 ft 373 kts 308°
2026-05-05 04:13 35.22942 -106.45997 35782 ft 371 kts 308°
2026-05-05 04:14 35.27145 -106.49748 35769 ft 380 kts 309°
2026-05-05 04:14 35.31355 -106.53599 35754 ft 376 kts 308°
2026-05-05 04:15 35.35502 -106.57443 35773 ft 371 kts 308°
2026-05-05 04:15 35.39603 -106.61241 35759 ft 368 kts 308°
2026-05-05 04:16 35.43647 -106.64983 35771 ft 366 kts 308°
2026-05-05 04:16 35.47703 -106.68741 35781 ft 366 kts 308°
2026-05-05 04:17 35.51779 -106.72526 35786 ft 371 kts 308°
2026-05-05 04:17 35.55937 -106.76394 35788 ft 377 kts 308°
2026-05-05 04:18 35.60078 -106.80267 35773 ft 373 kts 307°
2026-05-05 04:18 35.64186 -106.84104 35804 ft 371 kts 308°
2026-05-05 04:19 35.68328 -106.87924 35811 ft 373 kts 308°
2026-05-05 04:19 35.72447 -106.91794 35816 ft 373 kts 308°
2026-05-05 04:20 35.76592 -106.95639 35815 ft 373 kts 308°
2026-05-05 04:20 35.80711 -106.99467 35823 ft 373 kts 308°
2026-05-05 04:21 35.84880 -107.03285 35824 ft 374 kts 309°
2026-05-05 04:21 35.89009 -107.07149 35829 ft 373 kts 308°
2026-05-05 04:22 35.93145 -107.11081 35839 ft 377 kts 308°
2026-05-05 04:22 35.97303 -107.15014 35835 ft 380 kts 308°
2026-05-05 04:23 36.01513 -107.18984 35833 ft 381 kts 308°
2026-05-05 04:23 36.05719 -107.22883 35833 ft 373 kts 308°
2026-05-05 04:24 36.09825 -107.26764 35846 ft 372 kts 308°
2026-05-05 04:25 36.15989 -107.32633 35839 ft 376 kts 308°
2026-05-05 04:25 36.20155 -107.36587 35876 ft 378 kts 308°
2026-05-05 04:26 36.24326 -107.40538 35813 ft 377 kts 308°
2026-05-05 04:26 36.28484 -107.44484 35828 ft 376 kts 308°
2026-05-05 04:27 36.32602 -107.48396 35840 ft 375 kts 308°
2026-05-05 04:27 36.36744 -107.52333 35823 ft 375 kts 308°
2026-05-05 04:28 36.40876 -107.56275 35869 ft 375 kts 308°
2026-05-05 04:28 36.45009 -107.60226 35829 ft 374 kts 307°
2026-05-05 04:29 36.49133 -107.64106 35842 ft 376 kts 309°
2026-05-05 04:29 36.53228 -107.68043 35827 ft 369 kts 307°
2026-05-05 04:30 36.57282 -107.71996 35830 ft 372 kts 307°
2026-05-05 04:30 36.61398 -107.75940 35867 ft 374 kts 307°
2026-05-05 04:31 36.65506 -107.79880 35837 ft 377 kts 308°
2026-05-05 04:31 36.69690 -107.83841 35841 ft 378 kts 307°
2026-05-05 04:32 36.73833 -107.87866 35856 ft 378 kts 307°
2026-05-05 04:32 36.77979 -107.91889 35878 ft 378 kts 307°
2026-05-05 04:33 36.82101 -107.95880 35905 ft 377 kts 307°
2026-05-05 04:33 36.86247 -107.99892 35878 ft 376 kts 307°
2026-05-05 04:34 36.90376 -108.03890 35885 ft 375 kts 307°
2026-05-05 04:34 36.94484 -108.07881 35880 ft 374 kts 307°
2026-05-05 04:35 36.98560 -108.11846 35871 ft 373 kts 307°
2026-05-05 04:35 37.02659 -108.15839 35849 ft 374 kts 307°
2026-05-05 04:36 37.06756 -108.19839 35832 ft 373 kts 307°
2026-05-05 04:36 37.10855 -108.23839 35819 ft 374 kts 307°
2026-05-05 04:37 37.14929 -108.27817 35824 ft 374 kts 307°
2026-05-05 04:37 37.19028 -108.31829 35822 ft 374 kts 307°
2026-05-05 04:38 37.23140 -108.35864 35808 ft 375 kts 306°
2026-05-05 04:38 37.27234 -108.39889 35945 ft 374 kts 307°
2026-05-05 04:39 37.31287 -108.43960 35949 ft 370 kts 305°
2026-05-05 04:39 37.35360 -108.47975 35964 ft 377 kts 307°
2026-05-05 04:40 37.39517 -108.52007 35956 ft 378 kts 307°
2026-05-05 04:40 37.43669 -108.56078 35954 ft 378 kts 307°
2026-05-05 04:41 37.47779 -108.60133 35928 ft 378 kts 307°
2026-05-05 04:41 37.51897 -108.64215 35906 ft 376 kts 307°
2026-05-05 04:42 37.55995 -108.68273 35881 ft 374 kts 307°
2026-05-05 04:42 37.60084 -108.72331 35849 ft 373 kts 307°
2026-05-05 04:43 37.64131 -108.76357 35829 ft 374 kts 307°
2026-05-05 04:43 37.68225 -108.80440 35824 ft 378 kts 306°
2026-05-05 04:44 37.72375 -108.84584 35824 ft 382 kts 306°
2026-05-05 04:44 37.76559 -108.88758 35806 ft 384 kts 306°
2026-05-05 04:45 37.80721 -108.92907 35828 ft 385 kts 308°
2026-05-05 04:45 37.85252 -108.96711 35805 ft 392 kts 312°
2026-05-05 04:46 37.89863 -109.00376 35799 ft 390 kts 312°
2026-05-05 04:46 37.94437 -109.04029 35797 ft 387 kts 311°
2026-05-05 04:47 37.98945 -109.07661 35797 ft 386 kts 311°
2026-05-05 04:47 38.03478 -109.11335 35802 ft 387 kts 311°
2026-05-05 04:48 38.08029 -109.15036 35801 ft 392 kts 311°
2026-05-05 04:48 38.12641 -109.18792 35792 ft 395 kts 311°
2026-05-05 04:49 38.17244 -109.22521 35789 ft 395 kts 311°
2026-05-05 04:49 38.21874 -109.26291 35790 ft 394 kts 310°
2026-05-05 04:50 38.26468 -109.30032 35774 ft 392 kts 311°
2026-05-05 04:50 38.31043 -109.33781 35785 ft 391 kts 311°
2026-05-05 04:51 38.35580 -109.37499 35784 ft 390 kts 311°
2026-05-05 04:51 38.40131 -109.41244 35771 ft 388 kts 310°
2026-05-05 04:52 38.44653 -109.44980 35732 ft 387 kts 310°
2026-05-05 04:52 38.49197 -109.48724 35747 ft 392 kts 313°
2026-05-05 04:53 38.53764 -109.52492 35756 ft 392 kts 311°
2026-05-05 04:53 38.58345 -109.56256 35774 ft 396 kts 311°
2026-05-05 04:54 38.63006 -109.60111 35725 ft 401 kts 311°
2026-05-05 04:54 38.67698 -109.63980 35722 ft 401 kts 311°
2026-05-05 04:55 38.72378 -109.67873 35711 ft 400 kts 311°
2026-05-05 04:55 38.74709 -109.69802 35826 ft 398 kts 311°
2026-05-05 04:55 38.77033 -109.71720 35839 ft 396 kts 311°
2026-05-05 04:56 38.81607 -109.75509 35839 ft 393 kts 311°
2026-05-05 04:56 38.86176 -109.79320 35822 ft 390 kts 311°
2026-05-05 04:57 38.90745 -109.83148 35824 ft 396 kts 311°
2026-05-05 04:57 38.95366 -109.87024 35780 ft 401 kts 312°
2026-05-05 04:58 39.00032 -109.90933 35773 ft 401 kts 312°
2026-05-05 04:58 39.04718 -109.94857 35722 ft 402 kts 311°
2026-05-05 04:59 39.09387 -109.98759 35737 ft 400 kts 312°
2026-05-05 04:59 39.14042 -110.02674 35749 ft 399 kts 311°
2026-05-05 05:00 39.18652 -110.06550 35737 ft 399 kts 313°
2026-05-05 05:00 39.23148 -110.10556 35725 ft 389 kts 310°
2026-05-05 05:01 39.27748 -110.14368 35786 ft 395 kts 314°
2026-05-05 05:01 39.32417 -110.18208 35781 ft 405 kts 314°
2026-05-05 05:02 39.37133 -110.22192 35795 ft 404 kts 314°
2026-05-05 05:02 39.41844 -110.26198 35802 ft 407 kts 314°
2026-05-05 05:03 39.46551 -110.30206 35812 ft 402 kts 314°
2026-05-05 05:03 39.51198 -110.34155 35820 ft 401 kts 314°
2026-05-05 05:04 39.55878 -110.38126 35813 ft 403 kts 316°
2026-05-05 05:04 39.60558 -110.42117 35828 ft 402 kts 315°
2026-05-05 05:05 39.65203 -110.46126 35831 ft 401 kts 315°
2026-05-05 05:05 39.69824 -110.50100 35859 ft 402 kts 316°
2026-05-05 05:06 39.74440 -110.54195 35811 ft 395 kts 307°
2026-05-05 05:06 39.76128 -110.56866 35891 ft 377 kts 295°
2026-05-05 05:06 39.77400 -110.59815 35886 ft 373 kts 289°
2026-05-05 05:07 39.79676 -110.65904 35910 ft 376 kts 288°
2026-05-05 05:07 39.80807 -110.68989 35567 ft 382 kts 289°
2026-05-05 05:07 39.81942 -110.72051 35090 ft 381 kts 289°
2026-05-05 05:07 39.83102 -110.75145 34579 ft 380 kts 289°
2026-05-05 05:08 39.84272 -110.78247 33975 ft 382 kts 290°
2026-05-05 05:08 39.85445 -110.81340 33286 ft 383 kts 290°
2026-05-05 05:08 39.86628 -110.84458 32635 ft 385 kts 291°
2026-05-05 05:08 39.87818 -110.87594 31916 ft 387 kts 291°
2026-05-05 05:09 39.89011 -110.90738 31250 ft 389 kts 291°
2026-05-05 05:09 39.90211 -110.93905 30573 ft 391 kts 291°
2026-05-05 05:09 39.91401 -110.97051 29876 ft 393 kts 292°
2026-05-05 05:09 39.92612 -111.00254 29043 ft 396 kts 292°
2026-05-05 05:10 39.93827 -111.03469 28445 ft 393 kts 292°
2026-05-05 05:10 39.95034 -111.06667 27832 ft 393 kts 292°
2026-05-05 05:10 39.96239 -111.09864 27251 ft 394 kts 292°
2026-05-05 05:10 39.97448 -111.13081 26659 ft 399 kts 293°
2026-05-05 05:11 39.98686 -111.16377 26070 ft 409 kts 293°
2026-05-05 05:11 39.99941 -111.19718 25445 ft 410 kts 293°
2026-05-05 05:11 40.01190 -111.23042 24842 ft 407 kts 294°
2026-05-05 05:11 40.02413 -111.26304 24249 ft 404 kts 294°
2026-05-05 05:12 40.03643 -111.29591 23593 ft 403 kts 294°
2026-05-05 05:12 40.04868 -111.32868 22909 ft 401 kts 294°
2026-05-05 05:12 40.06083 -111.36122 22278 ft 397 kts 294°
2026-05-05 05:12 40.07282 -111.39334 21683 ft 392 kts 294°
2026-05-05 05:13 40.08470 -111.42525 21082 ft 388 kts 295°
2026-05-05 05:13 40.09643 -111.45676 20498 ft 384 kts 295°
2026-05-05 05:13 40.10790 -111.48759 19934 ft 381 kts 295°
2026-05-05 05:13 40.11943 -111.51861 19360 ft 379 kts 295°
2026-05-05 05:14 40.13088 -111.54949 18795 ft 376 kts 295°
2026-05-05 05:14 40.14207 -111.57972 18795 ft 365 kts 295°
2026-05-05 05:14 40.15303 -111.60936 18620 ft 360 kts 295°
2026-05-05 05:14 40.16402 -111.63911 18483 ft 367 kts 295°
2026-05-05 05:15 40.17516 -111.66931 18330 ft 371 kts 295°
2026-05-05 05:15 40.18635 -111.69964 18162 ft 369 kts 295°
2026-05-05 05:15 40.19744 -111.72971 17982 ft 366 kts 295°
2026-05-05 05:15 40.20833 -111.75923 17825 ft 364 kts 295°
2026-05-05 05:16 40.21927 -111.78896 17686 ft 362 kts 295°
2026-05-05 05:16 40.23018 -111.81864 17671 ft 366 kts 295°
2026-05-05 05:16 40.24126 -111.84877 17517 ft 369 kts 295°
2026-05-05 05:16 40.25234 -111.87895 17350 ft 366 kts 295°
2026-05-05 05:17 40.26335 -111.90895 17182 ft 365 kts 295°
2026-05-05 05:17 40.27652 -111.93712 16996 ft 364 kts 311°
2026-05-05 05:17 40.29608 -111.95796 16697 ft 366 kts 328°
2026-05-05 05:17 40.31790 -111.97440 16392 ft 365 kts 331°
2026-05-05 05:18 40.34005 -111.99037 16067 ft 361 kts 331°
2026-05-05 05:18 40.36190 -112.00636 15728 ft 357 kts 330°
2026-05-05 05:18 40.38334 -112.02239 15449 ft 352 kts 330°
2026-05-05 05:18 40.40448 -112.03835 15176 ft 349 kts 330°
2026-05-05 05:19 40.42650 -112.05097 14850 ft 347 kts 348°
2026-05-05 05:19 40.45035 -112.05509 14576 ft 344 kts 354°
2026-05-05 05:19 40.47419 -112.05792 14247 ft 344 kts 355°
2026-05-05 05:19 40.49799 -112.06064 13941 ft 343 kts 354°
2026-05-05 05:20 40.52172 -112.06349 13612 ft 342 kts 354°
2026-05-05 05:20 40.54513 -112.06644 13267 ft 342 kts 354°
2026-05-05 05:20 40.56870 -112.06952 12920 ft 341 kts 354°
2026-05-05 05:20 40.59228 -112.07265 12585 ft 340 kts 354°
2026-05-05 05:21 40.61572 -112.07578 12256 ft 339 kts 353°
2026-05-05 05:21 40.63915 -112.07888 11991 ft 336 kts 354°
2026-05-05 05:21 40.66226 -112.08163 11871 ft 331 kts 354°
2026-05-05 05:21 40.68530 -112.08425 11759 ft 335 kts 354°
2026-05-05 05:22 40.70832 -112.08689 11622 ft 339 kts 354°
2026-05-05 05:22 40.73157 -112.08957 11479 ft 329 kts 354°
2026-05-05 05:22 40.75383 -112.09215 11338 ft 314 kts 354°
2026-05-05 05:22 40.77509 -112.09466 11212 ft 300 kts 354°
2026-05-05 05:23 40.79540 -112.09707 11124 ft 288 kts 354°
2026-05-05 05:23 40.81498 -112.09938 11020 ft 276 kts 354°
2026-05-05 05:23 40.83369 -112.10166 10983 ft 263 kts 353°
2026-05-05 05:23 40.85139 -112.10406 10968 ft 249 kts 353°
2026-05-05 05:24 40.86818 -112.10640 10913 ft 235 kts 352°
2026-05-05 05:24 40.88409 -112.10880 10580 ft 234 kts 352°
2026-05-05 05:24 40.90029 -112.11121 10323 ft 232 kts 352°
2026-05-05 05:24 40.91612 -112.11377 10047 ft 227 kts 350°
2026-05-05 05:25 40.93180 -112.11654 9784 ft 227 kts 352°
2026-05-05 05:25 40.94753 -112.11895 9501 ft 228 kts 351°
2026-05-05 05:25 40.96337 -112.12162 9231 ft 232 kts 351°
2026-05-05 05:25 40.97957 -112.12394 8948 ft 235 kts 353°
2026-05-05 05:26 40.99037 -112.12517 8738 ft 235 kts 353°
2026-05-05 05:26 41.01097 -112.11951 8293 ft 232 kts 40°
2026-05-05 05:26 41.01946 -112.10239 8011 ft 222 kts 81°
2026-05-05 05:26 41.02143 -112.08252 7863 ft 217 kts 86°
2026-05-05 05:27 41.02310 -112.06256 7685 ft 218 kts 84°
2026-05-05 05:27 41.02270 -112.04263 7449 ft 218 kts 114°
2026-05-05 05:27 41.00423 -112.02437 7153 ft 208 kts 171°
2026-05-05 05:28 40.98520 -112.02054 6915 ft 210 kts 173°
2026-05-05 05:28 40.97071 -112.01840 6789 ft 209 kts 174°
2026-05-05 05:28 40.95625 -112.01663 6667 ft 208 kts 174°
2026-05-05 05:28 40.94190 -112.01491 6545 ft 207 kts 174°
2026-05-05 05:29 40.92760 -112.01322 6444 ft 206 kts 175°
2026-05-05 05:29 40.91818 -112.01212 6362 ft 203 kts 175°
2026-05-05 05:29 40.90435 -112.01053 6156 ft 197 kts 175°
2026-05-05 05:29 40.89091 -112.00896 5889 ft 188 kts 175°
2026-05-05 05:30 40.87840 -112.00751 5622 ft 173 kts 174°
2026-05-05 05:30 40.86694 -112.00617 5385 ft 160 kts 175°
2026-05-05 05:30 40.85624 -112.00492 5275 ft 149 kts 174°
2026-05-05 05:30 40.84595 -112.00377 4983 ft 146 kts 175°
2026-05-05 05:31 40.83628 -112.00257 4807 ft 136 kts 176°
2026-05-05 05:31 40.82701 -112.00152 4610 ft 131 kts 176°
2026-05-05 05:31 40.81822 -112.00051 4472 ft 124 kts 174°
2026-05-05 05:31 40.80969 -111.99955 4303 ft 125 kts 174°
2026-05-05 05:32 40.80127 -111.99852 4234 ft 113 kts 179°
2026-05-05 05:32 40.79479 -111.99781 4228 ft 72 kts 174°
2026-05-05 05:32 40.79039 -111.99725 4232 ft 55 kts 176°
2026-05-05 05:32 40.78840 -111.99668 4232 ft 20 kts 153°
2026-05-05 05:33 40.78745 -111.99574 4230 ft 13 kts 135°
2026-05-05 05:33 40.78713 -111.99479 4230 ft 11 kts 90°
2026-05-05 05:33 40.78719 -111.99375 4230 ft 11 kts 83°
2026-05-05 05:33 40.78726 -111.99275 4230 ft 11 kts 87°
2026-05-05 05:34 40.78727 -111.99178 4230 ft 11 kts 88°
2026-05-05 05:34 40.78733 -111.99082 4230 ft 11 kts 84°
2026-05-05 05:34 40.78741 -111.98977 4230 ft 12 kts 84°
2026-05-05 05:34 40.78749 -111.98869 4230 ft 12 kts 84°
2026-05-05 05:35 40.78756 -111.98764 4230 ft 11 kts 84°
2026-05-05 05:35 40.78768 -111.98709 4230 ft 4 kts 36°
2026-05-05 05:35 40.78798 -111.98708 4230 ft 4 kts 355°
2026-05-05 05:35 40.78827 -111.98711 4229 ft 2 kts 355°
2026-05-05 05:36 40.78836 -111.98712 4230 ft 0 kts 355°